Tracking 30260 objects as of 15-Feb-2025
HD Live streaming from Space Station
objects crossing your sky now

STARLINK-11507

Track STARLINK-11507 now!
10-day predictions
STARLINK-11507 is classified as:


NORAD ID: 62519
Int'l Code: 2025-004J
Perigee: 341.2 km
Apogee: 347.1 km
Inclination: 43.0 °
Period: 91.3 minutes
Semi major axis: 6715 km
RCS: Unknown
Launch date: January 8, 2025
Source: United States (US)
Launch site: AIR FORCE EASTERN TEST RANGE (AFETR)
Your satellite tracking list
Your tracking list is empty




NASA's NSSDC Master Catalog

Two Line Element Set (TLE):
1 62519U 25004J   25044.28864022 -.00021273  00000-0 -12053-3 0  9992
2 62519  42.9966 258.1229 0004432  16.4904 343.6109 15.77680463  5960
Source of the keplerian elements: AFSPC